Location: Copeville
(33.0796°N, 96.4155°W)
Time: 23:57:42
(UTC+00:00)

ISS - Pass Details

Date: 25 June 2024
Orbit: 409 x 423 km, 51.6° (Epoch: 23 July)

Event Time Altitude Azimuth Distance (km) Brightness Sun altitude
Exits shadow 09:29:28 20° 306° (NW) 1,007 -1.9 -19.0°
Maximum altitude 09:30:09 22° 325° (NW) 965 -1.8 -18.9°
Drops below altitude 10° 09:32:50 10° 18° (NNE) 1,489 0.0 -18.5°
Sets 09:35:15 0° 34° (NE) 2,359 1.7 -18.1°
